Temp
8 8 8 8 8 10 12 14 13 11 9 8 8 9 9 10 9 9 8 7 8 7 7 7 8 7 7 6 6 6 5 5 5 6 5 6 6 6 6 5 5 5 5 5 5 5 5 5 5
8 8 8 8 10 12 14 14 13 10 7 7 8 7 7 7 8 7 7 6 7 7 6 6 7 7 6 6 5 5 5 5 5 5 5 6 6 5 5 5 5 5 5 5 5 5 5 5 5
8 8 7 9 10 12 14 11 9 8 9 7 8 8 7 6 7 7 7 6 6 6 5 6 6 6 6 5 5 5 5 5 5 5 5 5 5 5 5 5 5 5 4 4 4 4 4 5 5
8 7 7 9 11 13 13 10 8 6 6 7 7 7 5 5 6 6 6 5 5 5 5 6 6 6 5 5 5 5 5 5 5 5 5 5 5 5 5 5 4 4 4 4 4 4 4 4 4
8 8 9 10 11 12 11 8 8 7 7 6 7 6 5 5 5 4 5 4 4 3 5 6 6 5 5 5 5 5 5 5 5 5 5 5 5 5 4 4 4 4 4 4 4 3 3 3 3
7 8 10 11 12 11 10 8 8 6 7 6 5 5 5 6 4 5 5 4 4 3 5 5 5 5 6 6 5 5 5 5 5 4 4 4 4 4 4 4 4 4 4 3 3 3 3 3 2
7 9 10 11 12 10 9 6 7 7 6 6 6 4 5 5 4 5 3 3 3 3 5 5 5 5 6 6 6 5 5 4 4 4 4 4 4 4 4 4 4 4 3 3 3 2 2 2 2
8 9 10 11 11 10 9 7 6 6 5 5 6 6 6 5 5 4 4 4 4 4 4 5 5 5 5 6 5 5 5 4 4 4 4 4 4 4 4 4 3 3 3 2 2 2 2 2 1
7 8 10 11 10 9 6 7 6 5 6 5 6 5 6 5 5 5 5 4 4 4 5 5 5 5 5 5 5 5 4 4 4 3 3 3 3 3 3 3 3 3 2 2 2 1 1 1 1
7 9 10 9 5 6 7 6 7 6 6 5 6 6 6 6 5 5 5 5 4 5 5 5 5 5 5 5 5 4 4 4 3 3 3 3 3 3 3 3 2 2 2 2 1 1 1 1 0
8 9 9 8 6 7 7 7 7 7 6 7 6 6 6 6 5 5 4 4 5 5 5 5 5 5 5 5 4 4 4 3 3 3 3 3 3 3 2 2 2 1 1 1 1 1 1 1 1
8 8 8 9 7 7 7 7 8 8 7 7 7 6 6 3 5 4 5 5 5 5 5 5 5 5 5 4 4 4 3 3 3 3 3 2 2 2 1 1 0 1 1 1 1 0 1 1 1
8 8 8 7 7 7 7 6 8 7 7 7 6 6 4 4 4 3 3 4 5 4 5 5 4 4 4 4 4 4 3 3 3 2 2 2 2 1 2 1 0 0 0 0 0 0 0 1 0
8 7 7 6 6 6 7 7 8 7 6 6 6 5 4 4 4 4 4 4 4 5 5 4 4 4 4 4 4 3 3 2 2 2 2 2 2 1 1 1 1 1 1 0 0 0 0 0 -0
7 7 6 6 7 7 7 8 8 6 6 5 5 5 4 4 4 4 4 4 4 4 4 4 4 4 4 4 3 3 2 2 1 1 2 2 1 1 0 0 0 0 0 0 -0 -0 -0 -0 -1
7 7 7 7 7 7 6 9 8 7 6 6 5 5 5 4 4 4 4 4 4 4 4 4 4 3 3 3 3 2 1 0 1 2 2 1 1 0 1 1 0 0 0 -0 -0 -1 -1 -1 -1
8 8 8 8 8 8 8 9 8 7 7 6 5 5 5 5 4 4 5 4 4 5 5 4 3 3 3 2 2 1 0 0 0 -0 0 1 1 1 1 1 1 -0 -0 -0 -0 -1 -1 -1 -1
9 9 9 9 8 9 9 9 8 7 7 6 6 5 5 5 5 6 5 4 4 5 4 4 3 3 2 2 2 2 2 -0 0 0 0 0 0 1 1 0 0 -0 -1 -1 -1 -1 -2 -2 -1
9 10 10 10 9 9 9 9 7 7 7 7 6 5 5 4 5 5 5 5 4 4 4 4 3 3 2 2 2 2 1 0 1 1 0 0 1 0 -1 -1 -1 -1 -2 -2 -2 -1 -1 -1 -2
9 9 10 9 8 9 9 9 8 7 7 7 6 5 5 4 6 5 5 5 4 4 4 4 3 3 2 2 1 1 1 1 1 0 -0 -0 -0 -1 -1 -1 -2 -2 -2 -2 -2 -2 -2 -3 -3
9 10 8 10 8 8 9 9 8 8 7 6 6 6 5 4 5 5 5 5 5 5 4 4 3 2 2 1 1 0 0 -0 -1 -1 -1 -1 -1 -1 -2 -2 -2 -3 -3 -3 -3 -4 -4 -4 -4
9 9 9 9 9 10 9 11 9 7 8 8 8 5 4 4 3 6 5 6 5 4 4 3 2 2 1 0 -0 -0 -1 -1 -2 -2 -2 -2 -2 -2 -2 -3 -3 -3 -4 -4 -4 -5 -5 -6 -7
7 8 9 9 10 9 9 10 9 8 7 7 8 6 4 3 4 5 5 5 4 4 3 3 2 1 1 1 0 -0 -1 -1 -2 -2 -2 -2 -3 -2 -3 -3 -4 -4 -4 -5 -5 -6 -7 -8 -8
8 8 8 9 9 10 10 10 11 10 9 7 5 4 3 4 4 5 4 4 4 3 3 3 2 1 1 0 0 -0 -1 -2 -2 -3 -3 -3 -4 -4 -5 -5 -5 -5 -5 -6 -7 -7 -7 -9 -10
7 8 9 9 10 10 9 9 10 9 7 8 5 4 3 3 4 4 4 4 3 3 2 1 1 1 1 0 -0 -1 -1 -2 -2 -2 -3 -4 -4 -4 -5 -5 -5 -6 -6 -7 -8 -8 -10 -10 -11
8 8 9 8 9 10 8 10 9 8 8 6 4 3 3 4 4 4 3 3 3 2 2 1 1 1 0 -0 -1 -1 -1 -2 -2 -3 -3 -3 -4 -4 -5 -5 -6 -6 -7 -8 -9 -9 -11 -10 -11
8 8 7 8 7 7 9 10 7 7 6 6 4 3 2 3 4 3 3 3 2 2 2 1 1 0 0 -0 -1 -1 -2 -2 -3 -3 -3 -4 -5 -5 -6 -6 -7 -7 -8 -8 -9 -10 -12 -11 -11
7 7 7 7 7 8 11 10 10 7 6 5 4 3 2 2 3 2 1 2 2 2 1 1 0 -0 -0 -1 -1 -1 -2 -3 -3 -3 -4 -5 -5 -6 -6 -7 -7 -8 -8 -9 -9 -11 -12 -12 -12
7 7 7 7 7 8 9 10 7 7 6 5 5 4 3 2 1 1 1 1 2 1 1 1 0 -0 -0 -1 -2 -2 -3 -3 -4 -4 -5 -5 -6 -6 -7 -7 -8 -9 -9 -10 -10 -11 -12 -12 -12
7 7 7 7 8 6 6 8 7 6 5 5 5 4 3 2 2 1 0 1 2 1 1 1 0 -0 -1 -2 -2 -3 -3 -4 -4 -5 -5 -6 -7 -7 -7 -8 -9 -9 -10 -11 -11 -11 -12 -13 -14
Height
3146 3147 3148 3150 3157 3149 3141 3138 3137 3141 3142 3144 3142 3143 3142 3142 3143 3147 3146 3147 3149 3153 3156 3159 3162 3164 3167 3169 3171 3172 3173 3174 3174 3174 3175 3175 3175 3175 3175 3175 3174 3174 3173 3173 3173 3172 3171 3170 3168
3144 3146 3148 3150 3152 3141 3135 3133 3135 3135 3130 3137 3138 3139 3139 3143 3143 3142 3144 3147 3149 3153 3156 3158 3163 3165 3167 3169 3170 3172 3173 3173 3174 3174 3174 3175 3175 3176 3176 3175 3175 3174 3174 3175 3174 3173 3172 3170 3169
3144 3145 3149 3149 3146 3139 3133 3136 3134 3134 3134 3137 3137 3135 3138 3139 3140 3140 3142 3145 3149 3151 3155 3160 3163 3165 3166 3168 3170 3172 3172 3172 3172 3173 3174 3174 3175 3176 3176 3176 3175 3175 3175 3175 3174 3172 3172 3170 3169
3143 3146 3148 3145 3140 3137 3134 3135 3135 3135 3136 3135 3135 3136 3139 3139 3139 3140 3141 3144 3146 3150 3155 3159 3162 3164 3166 3168 3169 3171 3170 3171 3172 3174 3174 3174 3175 3175 3176 3176 3176 3176 3176 3174 3174 3172 3171 3169 3167
3143 3146 3145 3141 3138 3135 3137 3133 3137 3137 3139 3134 3136 3137 3138 3139 3141 3142 3142 3144 3145 3148 3156 3159 3162 3163 3165 3167 3169 3170 3170 3171 3172 3173 3173 3174 3175 3175 3176 3176 3176 3176 3175 3174 3173 3172 3170 3169 3167
3145 3145 3142 3135 3132 3132 3136 3132 3131 3135 3136 3138 3138 3135 3136 3139 3137 3140 3142 3144 3142 3150 3155 3159 3161 3161 3163 3166 3168 3169 3170 3171 3171 3172 3174 3176 3176 3177 3177 3176 3177 3175 3175 3174 3173 3172 3169 3167 3167
3142 3142 3138 3133 3130 3134 3129 3113 3130 3130 3137 3137 3136 3137 3138 3138 3140 3141 3140 3141 3143 3150 3155 3159 3162 3162 3163 3164 3167 3169 3170 3171 3173 3174 3176 3176 3176 3176 3176 3176 3175 3174 3174 3173 3172 3171 3168 3167 3165
3142 3141 3136 3133 3129 3130 3131 3126 3131 3134 3132 3138 3139 3139 3137 3139 3139 3137 3139 3144 3147 3152 3154 3158 3162 3162 3162 3164 3166 3168 3170 3172 3173 3174 3176 3176 3175 3175 3175 3175 3175 3174 3172 3172 3170 3170 3168 3166 3164
3139 3139 3132 3129 3129 3122 3127 3132 3131 3134 3135 3138 3139 3140 3138 3137 3140 3141 3143 3146 3149 3152 3155 3158 3160 3162 3162 3163 3166 3168 3170 3173 3173 3175 3176 3174 3174 3175 3174 3173 3174 3172 3171 3170 3169 3168 3165 3164 3162
3137 3135 3130 3128 3125 3121 3123 3131 3131 3133 3134 3139 3140 3137 3138 3139 3140 3143 3147 3149 3151 3155 3157 3158 3160 3161 3162 3163 3167 3169 3170 3172 3173 3174 3174 3174 3174 3174 3174 3173 3173 3172 3171 3169 3167 3165 3163 3162 3160
3136 3133 3133 3127 3126 3129 3127 3130 3131 3134 3133 3135 3138 3138 3138 3139 3141 3144 3149 3151 3153 3155 3156 3158 3159 3161 3162 3165 3166 3168 3169 3170 3173 3174 3174 3174 3174 3174 3173 3172 3171 3170 3168 3167 3164 3162 3161 3159 3158
3135 3135 3133 3135 3135 3134 3133 3131 3133 3135 3135 3135 3137 3137 3139 3142 3144 3148 3149 3152 3153 3154 3156 3157 3158 3160 3162 3165 3166 3168 3169 3170 3172 3173 3174 3174 3173 3172 3171 3171 3170 3168 3165 3165 3162 3159 3157 3155 3153
3134 3135 3133 3133 3133 3131 3132 3131 3125 3135 3134 3136 3136 3139 3143 3146 3149 3150 3152 3152 3152 3154 3155 3156 3158 3160 3162 3165 3166 3167 3169 3169 3172 3173 3172 3172 3171 3170 3169 3167 3167 3165 3163 3160 3158 3155 3153 3150 3147
3134 3135 3134 3132 3134 3133 3133 3128 3139 3137 3137 3137 3137 3143 3146 3149 3151 3151 3152 3153 3154 3155 3156 3158 3160 3161 3163 3164 3165 3167 3168 3169 3170 3170 3169 3169 3168 3166 3164 3163 3162 3160 3159 3156 3153 3151 3147 3144 3142
3134 3134 3135 3135 3136 3136 3134 3138 3139 3138 3138 3139 3142 3146 3148 3151 3152 3153 3154 3155 3156 3157 3158 3159 3161 3162 3163 3163 3163 3164 3165 3165 3166 3168 3166 3165 3164 3163 3161 3159 3157 3155 3152 3150 3147 3144 3141 3138 3135
3135 3136 3136 3137 3136 3136 3138 3136 3139 3139 3141 3144 3146 3148 3151 3152 3154 3154 3155 3156 3157 3158 3159 3160 3160 3161 3161 3161 3161 3160 3160 3160 3161 3165 3163 3161 3161 3159 3157 3154 3152 3150 3146 3143 3142 3137 3133 3130 3127
3132 3133 3134 3135 3135 3136 3138 3137 3139 3141 3144 3146 3147 3148 3150 3150 3152 3153 3154 3155 3156 3156 3157 3159 3159 3158 3159 3160 3159 3158 3157 3158 3160 3157 3158 3157 3157 3155 3152 3151 3148 3145 3141 3137 3133 3131 3127 3122 3119
3127 3127 3130 3130 3135 3136 3136 3136 3139 3141 3144 3146 3148 3148 3150 3150 3151 3152 3153 3154 3154 3154 3155 3156 3155 3156 3156 3155 3155 3154 3151 3153 3154 3154 3154 3154 3153 3151 3148 3146 3143 3140 3134 3131 3127 3124 3119 3115 3110
3126 3126 3127 3128 3133 3134 3135 3136 3138 3140 3143 3146 3147 3148 3149 3149 3149 3150 3151 3152 3153 3152 3152 3153 3153 3152 3153 3153 3151 3149 3149 3152 3153 3152 3151 3150 3149 3148 3145 3140 3136 3133 3129 3124 3120 3114 3110 3107 3103
3126 3126 3126 3129 3132 3133 3134 3135 3137 3138 3140 3143 3145 3145 3146 3147 3146 3148 3149 3150 3150 3150 3149 3149 3149 3148 3149 3149 3148 3148 3149 3150 3149 3148 3147 3146 3143 3141 3138 3136 3131 3126 3123 3118 3112 3108 3103 3100 3096
3126 3126 3129 3127 3130 3131 3132 3132 3133 3134 3138 3139 3141 3143 3144 3143 3143 3144 3145 3145 3146 3146 3145 3145 3145 3145 3146 3146 3146 3147 3146 3144 3143 3143 3142 3140 3138 3135 3131 3127 3123 3118 3114 3110 3104 3099 3093 3088 3083
3125 3125 3127 3128 3128 3125 3128 3120 3126 3129 3130 3132 3134 3137 3139 3140 3139 3139 3139 3140 3141 3141 3142 3142 3142 3142 3143 3144 3143 3143 3142 3140 3139 3137 3135 3130 3129 3125 3121 3117 3113 3109 3104 3099 3093 3088 3082 3077 3072
3124 3125 3128 3128 3125 3124 3124 3123 3116 3127 3127 3127 3128 3130 3133 3134 3134 3135 3136 3136 3137 3138 3139 3139 3140 3140 3140 3140 3139 3139 3139 3137 3134 3132 3128 3125 3119 3115 3112 3109 3104 3100 3094 3089 3083 3078 3073 3067 3062
3126 3128 3128 3127 3125 3122 3120 3121 3116 3120 3124 3125 3126 3127 3129 3129 3130 3131 3132 3133 3134 3136 3136 3137 3136 3136 3135 3135 3135 3135 3133 3131 3128 3123 3121 3117 3113 3108 3103 3099 3095 3090 3084 3079 3074 3069 3064 3058 3053
3128 3128 3125 3123 3121 3122 3121 3123 3121 3120 3120 3123 3122 3123 3124 3125 3127 3128 3129 3131 3132 3133 3134 3134 3133 3132 3131 3130 3129 3129 3127 3124 3122 3118 3115 3110 3108 3103 3099 3093 3088 3082 3076 3071 3065 3059 3053 3049 3045
3126 3125 3123 3123 3120 3119 3119 3119 3117 3117 3118 3119 3120 3121 3121 3122 3124 3126 3127 3128 3129 3129 3129 3129 3128 3127 3126 3125 3124 3122 3120 3117 3115 3111 3108 3104 3100 3097 3091 3083 3078 3072 3066 3061 3055 3049 3044 3040 3038
3124 3125 3125 3125 3125 3126 3119 3114 3115 3115 3115 3116 3118 3119 3119 3119 3121 3123 3124 3125 3125 3125 3125 3125 3124 3122 3121 3119 3117 3115 3113 3112 3108 3104 3100 3096 3092 3087 3079 3074 3068 3063 3058 3052 3047 3041 3036 3032 3029
3124 3124 3125 3124 3124 3118 3107 3111 3109 3115 3115 3114 3117 3117 3117 3118 3119 3121 3121 3121 3121 3121 3119 3120 3119 3116 3115 3114 3112 3110 3107 3104 3100 3096 3092 3088 3083 3076 3071 3066 3061 3056 3050 3044 3039 3033 3029 3024 3021
3120 3121 3122 3121 3121 3118 3114 3108 3112 3114 3114 3113 3115 3116 3116 3115 3117 3118 3118 3117 3117 3116 3115 3115 3114 3112 3110 3108 3105 3103 3100 3096 3092 3088 3083 3078 3073 3068 3064 3059 3054 3047 3041 3034 3028 3025 3020 3016 3012
3117 3117 3118 3119 3119 3119 3119 3114 3110 3111 3112 3112 3113 3113 3114 3114 3115 3115 3114 3112 3112 3112 3110 3109 3109 3106 3104 3100 3097 3094 3092 3088 3083 3079 3075 3070 3066 3062 3056 3050 3045 3038 3032 3026 3020 3016 3012 3008 3005
Wind_Speed
9 10 6 8 8 13 22 25 14 8 10 3 6 9 12 19 13 12 13 18 20 24 22 20 19 20 17 15 11 6 4 4 4 3 3 3 1 3 4 4 5 5 6 7 7 8 8 9 9
9 9 8 6 15 22 21 21 6 8 9 9 10 9 10 10 18 9 12 19 24 22 22 19 19 20 17 12 8 5 4 4 4 4 2 4 4 4 4 5 6 8 8 8 9 9 10 10 10
10 10 7 13 20 24 16 2 9 7 12 10 14 18 19 12 13 15 18 24 25 23 23 19 20 19 15 10 7 6 5 5 4 4 6 6 5 6 5 6 7 8 9 9 10 11 11 10 11
7 6 10 14 21 18 14 4 7 6 4 12 12 13 6 5 15 17 24 26 26 23 24 23 21 18 13 10 7 4 4 4 7 7 7 6 7 6 5 7 7 8 9 10 10 11 12 12 11
8 8 15 17 18 15 7 8 4 12 6 2 9 16 16 6 8 9 22 21 22 26 22 21 20 17 12 9 5 5 6 8 9 8 7 8 6 6 6 6 6 8 10 12 13 15 15 15 14
9 9 17 21 19 9 9 11 16 5 7 7 4 3 8 6 6 17 27 27 22 22 23 21 19 16 12 8 6 8 9 9 9 9 8 6 6 5 5 5 6 8 11 12 15 18 19 18 17
13 16 16 20 5 8 17 9 7 16 6 5 5 7 3 4 13 12 12 21 21 21 20 19 17 14 11 7 8 10 10 10 10 10 8 7 5 3 2 3 5 8 10 13 15 18 20 19 18
13 15 20 15 18 18 13 9 11 8 5 4 4 3 4 7 13 20 16 17 23 21 20 17 14 11 8 8 11 11 12 13 12 11 8 6 3 1 2 4 7 9 11 13 15 17 20 21 20
12 14 22 17 18 16 17 14 10 6 4 9 2 5 5 7 11 11 17 18 22 20 17 16 12 9 8 10 11 13 14 14 13 10 8 5 4 5 6 7 9 11 12 14 15 18 21 22 23
13 14 12 8 12 10 13 11 2 5 3 8 8 16 11 8 13 17 19 22 20 18 17 14 11 9 10 11 13 14 16 16 14 11 9 8 8 7 9 10 11 12 14 16 17 20 23 25 23
13 14 7 4 3 2 1 5 7 8 10 7 7 6 3 11 15 17 18 19 18 17 15 12 9 8 12 14 16 18 18 16 14 12 11 10 9 9 12 15 16 15 16 19 21 24 26 29 29
11 13 9 8 10 11 9 7 6 4 3 7 7 7 8 14 19 19 20 19 17 13 11 10 11 13 15 17 20 19 19 17 16 13 11 10 11 10 12 16 18 19 21 21 24 26 29 32 32
13 9 6 8 8 7 10 12 10 2 5 9 13 12 17 18 19 19 17 14 11 9 9 11 13 15 17 19 19 21 18 18 13 12 11 13 14 14 17 21 22 23 25 27 29 31 33 34 33
7 5 4 8 14 12 9 4 7 3 8 13 14 19 19 20 20 18 15 13 10 9 10 11 12 14 17 18 19 19 19 16 14 12 12 17 22 22 20 21 24 27 29 33 34 35 34 36 37
11 8 12 9 12 12 9 7 8 6 9 14 17 18 19 19 17 17 17 15 13 11 8 8 10 12 16 19 21 22 21 20 13 4 13 20 22 23 23 24 26 30 34 34 35 35 38 39 41
9 12 13 13 13 10 12 13 9 8 11 14 16 17 18 18 17 17 18 16 15 14 12 11 11 13 16 20 24 26 22 16 9 15 23 21 24 23 25 27 30 32 34 35 37 39 41 42 43
13 11 14 11 15 10 12 13 12 13 13 14 16 18 19 19 18 19 21 19 18 16 16 13 15 19 21 21 24 26 23 34 29 21 22 21 26 26 28 28 29 32 35 37 39 39 41 43 43
15 17 16 14 15 15 9 7 12 17 16 15 16 17 19 19 19 19 21 22 19 20 19 18 20 21 23 26 22 17 6 12 9 14 17 23 22 22 23 26 29 31 35 37 40 40 40 41 43
8 11 12 13 12 13 12 8 12 18 18 18 16 16 17 18 23 19 21 19 20 23 21 22 21 25 21 15 7 4 6 11 12 12 13 16 18 18 22 28 31 31 34 38 40 40 41 43 44
6 6 10 9 11 10 11 12 12 15 18 19 19 18 18 19 20 21 21 21 22 23 24 24 21 16 12 8 4 2 6 10 11 13 16 18 20 23 27 28 30 33 34 38 40 40 42 43 44
5 8 4 8 13 14 10 16 17 17 16 20 19 20 20 20 21 22 20 20 20 21 17 14 14 11 8 4 4 8 10 11 14 17 19 21 24 28 29 31 32 34 36 38 40 42 43 44 43
10 9 5 5 11 21 19 18 19 20 21 19 19 21 22 19 21 21 21 19 16 14 13 12 9 7 6 8 12 13 14 14 16 21 27 31 31 33 33 35 36 37 38 39 40 40 42 41 40
3 4 4 8 15 12 17 12 25 19 18 17 17 18 19 21 20 21 19 17 15 14 11 11 10 11 14 16 16 15 15 19 21 25 30 33 35 36 38 37 38 38 39 40 40 41 41 40 39
5 2 5 9 13 12 17 15 6 16 12 14 15 17 20 20 20 19 19 18 16 12 12 13 13 19 16 17 18 20 22 23 26 30 30 32 31 36 37 40 40 41 41 41 42 41 40 37 31
6 8 13 7 6 9 1 7 18 6 7 9 15 17 19 19 21 21 20 19 15 13 12 15 19 17 17 18 21 23 25 26 30 35 34 32 34 36 38 40 39 40 41 41 42 41 38 30 29
8 10 8 6 7 7 3 8 5 7 8 8 13 16 17 18 20 21 20 18 16 14 15 17 18 19 19 22 23 26 28 30 35 37 37 32 34 37 38 40 40 41 42 42 41 38 36 28 29
7 8 4 5 7 7 16 8 5 7 7 8 13 17 19 19 21 21 22 19 19 17 19 18 21 23 24 25 27 31 33 34 36 38 34 34 35 37 38 39 41 41 41 41 40 37 31 27 30
9 4 4 7 3 6 5 5 5 1 4 6 13 17 19 19 20 21 21 22 22 21 22 20 23 27 27 29 33 35 37 36 38 33 33 33 35 37 38 39 41 41 41 41 39 33 29 25 31
7 11 9 7 5 4 3 2 4 2 3 5 11 16 19 19 21 22 22 25 25 26 25 24 26 29 32 34 37 36 36 38 31 31 33 35 36 37 39 41 41 40 40 40 38 34 31 30 30
10 11 12 11 8 7 4 9 6 4 1 3 8 14 17 19 21 21 23 29 29 28 30 29 29 34 35 39 40 33 36 31 32 33 34 36 37 38 40 40 40 40 39 39 40 36 30 26 22
Wind_Direction
235 225 219 212 225 238 250 245 233 261 237 220 174 160 191 202 205 200 226 204 185 175 165 163 170 158 155 152 156 162 164 182 200 213 278 309 100 104 76 65 64 62 51 41 28 22 17 10 3
229 227 216 206 239 245 244 240 211 178 132 195 194 128 164 211 207 199 190 184 174 167 166 159 172 162 158 155 155 159 183 203 226 249 237 141 122 86 70 70 61 53 49 40 29 21 14 10 360
233 212 211 241 239 255 275 332 155 193 257 223 216 193 193 181 204 209 184 176 164 159 168 178 170 167 160 153 156 179 222 233 230 167 145 128 110 104 96 78 63 55 49 39 30 21 12 5 359
213 222 226 236 248 248 260 189 160 151 195 222 213 175 121 165 194 173 168 164 161 164 178 174 171 166 163 160 172 212 221 182 146 142 134 123 118 112 94 78 66 52 40 30 17 11 5 1 353
218 204 243 237 245 260 256 206 178 175 143 160 228 221 254 325 217 143 159 160 175 171 168 172 170 169 165 168 191 201 158 149 149 146 138 134 128 113 97 79 60 43 31 24 15 7 0 358 357
227 223 248 243 242 222 219 194 186 175 147 109 130 263 57 125 131 193 195 200 187 162 176 172 174 170 168 177 193 174 164 163 155 148 146 140 127 107 81 49 24 17 14 12 7 1 360 356 353
224 234 250 272 230 207 226 196 148 162 155 136 111 172 213 222 175 177 187 168 157 172 171 174 178 171 170 181 188 177 172 165 159 156 161 150 122 96 56 342 342 353 356 360 356 353 352 350 346
230 251 255 251 248 225 207 180 141 149 199 16 126 255 275 226 202 209 175 151 167 168 171 179 176 172 175 192 187 183 171 170 167 168 167 148 138 187 282 305 321 339 343 344 344 343 341 339 333
226 244 252 245 245 214 187 143 121 92 86 158 268 210 277 234 205 175 167 171 167 174 174 178 177 191 195 192 188 183 177 175 176 176 177 184 213 253 273 306 316 324 325 326 331 331 330 328 323
212 234 279 254 249 187 146 147 154 139 123 202 229 259 257 205 198 187 185 174 174 173 177 182 192 204 197 191 189 184 184 185 188 193 203 227 248 273 297 306 306 309 310 312 317 320 320 320 320
221 239 275 335 52 13 174 170 167 225 196 179 210 240 284 168 171 173 173 168 174 177 186 198 207 207 202 195 190 190 190 194 202 213 227 245 265 292 304 310 307 303 305 306 311 313 314 314 312
222 235 266 249 182 140 172 173 169 166 349 137 193 243 155 156 152 151 159 169 178 189 207 220 223 213 200 195 197 195 196 202 215 227 252 274 282 295 303 300 290 302 300 301 304 304 310 309 309
215 248 248 202 209 197 216 248 101 68 46 129 183 159 150 150 152 152 157 169 184 198 212 213 206 202 202 203 201 201 204 215 231 244 259 273 275 282 300 284 292 294 297 300 303 305 309 309 309
213 203 165 192 189 204 233 184 118 83 108 133 146 147 156 155 156 157 164 169 172 194 202 203 204 208 210 209 206 211 219 224 237 251 271 284 281 284 284 283 288 293 300 300 302 306 306 306 306
163 138 117 182 184 210 196 162 125 126 120 146 146 150 157 160 162 171 172 176 188 190 181 192 206 216 216 218 220 221 222 225 231 255 264 287 283 283 289 288 292 297 298 301 303 305 304 304 303
157 198 182 191 197 205 184 161 182 179 141 144 154 159 164 171 172 183 185 194 203 208 209 214 225 237 244 245 239 227 210 177 191 248 264 267 278 285 286 293 295 299 301 301 301 303 304 302 301
195 190 197 199 193 198 205 155 175 185 165 165 164 169 170 179 174 194 195 201 211 229 236 238 248 255 265 278 272 301 250 261 240 253 269 270 271 284 288 296 303 303 302 302 301 300 300 300 300
203 216 179 183 184 192 197 157 183 193 183 187 179 177 179 186 192 199 203 210 220 238 246 251 259 271 270 280 294 289 272 263 246 249 261 266 279 292 307 306 303 301 300 299 298 299 299 300 302
230 193 200 171 179 192 200 188 185 193 195 198 196 193 193 199 211 211 213 218 229 248 259 264 270 274 281 277 299 308 197 235 246 258 276 289 286 291 303 308 308 306 302 301 300 303 304 303 301
226 183 163 156 181 198 202 193 194 196 203 208 206 206 206 205 226 220 227 234 244 255 263 268 270 263 253 256 265 232 230 251 252 266 276 284 297 308 309 306 303 301 299 299 300 301 299 298 297
201 243 213 198 195 203 210 205 206 214 203 208 213 215 214 217 227 232 239 249 257 256 251 250 248 244 249 257 255 237 248 269 273 276 290 303 306 310 309 308 306 304 303 302 302 301 301 303 303
205 210 204 199 201 213 208 239 194 208 214 230 225 209 210 210 222 241 250 261 251 237 239 242 233 239 253 264 275 289 281 288 286 299 305 311 315 313 312 310 308 307 306 305 307 309 309 310 308
99 162 208 234 254 241 206 254 227 203 205 219 227 223 208 213 227 244 250 248 235 231 231 240 242 274 277 283 297 295 286 283 291 300 306 312 312 313 312 310 309 311 313 314 315 315 313 308 304
261 238 248 256 257 266 265 251 241 210 222 215 209 209 201 218 225 231 231 228 224 227 249 259 250 287 283 275 278 285 291 294 300 300 304 312 309 311 310 310 313 316 317 317 316 313 309 307 301
222 253 258 215 250 245 221 261 258 270 238 227 221 204 209 214 222 223 229 223 227 244 252 271 270 272 272 272 280 287 291 292 297 300 304 306 305 306 304 309 313 316 317 317 314 313 311 308 291
225 275 275 277 290 273 159 255 187 218 277 223 209 200 208 218 221 222 221 224 239 246 267 271 267 272 274 274 283 287 289 296 300 299 309 305 303 304 306 314 317 320 319 318 316 313 308 304 288
227 252 245 278 285 276 260 232 253 273 253 243 201 197 207 213 221 221 222 229 238 255 264 268 266 275 285 286 285 287 287 289 297 307 305 305 306 309 316 318 318 318 317 316 315 311 303 293 283
226 211 234 223 263 256 226 245 103 200 205 212 201 201 208 212 218 214 218 234 243 259 267 272 269 275 283 283 283 286 285 292 309 303 304 306 310 316 318 317 316 316 315 314 313 311 300 297 285
234 237 242 264 250 290 305 120 135 164 181 203 201 207 212 214 213 215 220 237 246 256 269 269 267 275 278 278 277 280 288 305 302 306 307 310 315 316 316 315 314 315 316 315 318 312 302 296 291
241 248 240 236 234 230 278 289 311 206 151 249 218 219 216 217 217 221 226 242 253 261 272 277 274 274 278 276 276 284 300 304 308 308 311 313 314 314 314 314 316 317 318 316 314 311 302 294 282